When you browse on this site, cookies collect data to enhance your experience and personalize the content and advertising you see.
Visit our Privacy Policy to learn more. By continuing to use the site, you agree to this use of cookies and data.
  • en France
  • Liste des pays
  • À 7 jours
  • Température de l'eau
  • Carte satellitaire
  • Carte météo
  • Widgets météo
  • user-avatar
    Se connecter

    Météo par heure à Nakhitchevan

    Ce jour, 18 Juin, Mardi

    Heure Température Précipitation Vent Pression Humidité
    00:00 +26°C° 0 mm 2 m/s 686 mmHg 48%
    01:00 +25°C° 0 mm 2 m/s 686 mmHg 50%
    02:00 +25°C° 0 mm 2 m/s 685 mmHg 53%
    03:00 +24°C° 0 mm 1 m/s 685 mmHg 54%
    04:00 +24°C° 0 mm 1 m/s 685 mmHg 53%
    05:00 +24°C° 0 mm 1 m/s 685 mmHg 52%
    06:00 +25°C° 0 mm 1 m/s 686 mmHg 51%
    07:00 +26°C° 0 mm 1 m/s 686 mmHg 47%
    08:00 +27°C° 0 mm 1 m/s 686 mmHg 44%
    09:00 +28°C° 0 mm 1 m/s 686 mmHg 41%
    10:00 +29°C° 0 mm 1 m/s 686 mmHg 38%
    11:00 +31°C° 0 mm 1 m/s 685 mmHg 34%
    12:00 +32°C° 0 mm 1 m/s 685 mmHg 31%
    13:00 +33°C° 0 mm 1 m/s 685 mmHg 28%
    14:00 +33°C° 0 mm 1 m/s 685 mmHg 25%
    15:00 +34°C° 0 mm 1 m/s 685 mmHg 22%
    16:00 +34°C° 0 mm 1 m/s 685 mmHg 21%
    17:00 +35°C° 0 mm 2 m/s 685 mmHg 21%
    18:00 +35°C° 0 mm 2 m/s 685 mmHg 21%
    19:00 +33°C° 0.2 mm 3 m/s 685 mmHg 28%
    20:00 +30°C° 0.2 mm 4 m/s 685 mmHg 35%
    21:00 +28°C° 0.2 mm 6 m/s 685 mmHg 42%
    22:00 +27°C° 0.2 mm 5 m/s 685 mmHg 45%
    23:00 +26°C° 0.2 mm 4 m/s 685 mmHg 48%

    Demain, 19 Juin, Mercredi

    Heure Température Précipitation Vent Pression Humidité
    00:00 +25°C° 0.2 mm 3 m/s 685 mmHg 50%
    01:00 +25°C° 0.1 mm 2 m/s 685 mmHg 52%
    02:00 +24°C° 0.1 mm 2 m/s 685 mmHg 54%
    03:00 +24°C° 0.1 mm 1 m/s 685 mmHg 55%
    04:00 +24°C° 0 mm 1 m/s 685 mmHg 54%
    05:00 +24°C° 0 mm 1 m/s 685 mmHg 52%
    06:00 +23°C° 0 mm 0 m/s 685 mmHg 51%
    07:00 +26°C° 0 mm 1 m/s 685 mmHg 47%
    08:00 +27°C° 0 mm 1 m/s 685 mmHg 43%
    09:00 +28°C° 0 mm 1 m/s 685 mmHg 40%
    10:00 +29°C° 0 mm 1 m/s 685 mmHg 36%
    11:00 +30°C° 0 mm 1 m/s 685 mmHg 33%
    12:00 +31°C° 0 mm 1 m/s 685 mmHg 30%
    13:00 +32°C° 0 mm 2 m/s 685 mmHg 28%
    14:00 +34°C° 0 mm 2 m/s 685 mmHg 26%
    15:00 +35°C° 0 mm 2 m/s 685 mmHg 23%
    16:00 +34°C° 0 mm 3 m/s 685 mmHg 25%
    17:00 +33°C° 0 mm 4 m/s 685 mmHg 27%
    18:00 +33°C° 0 mm 5 m/s 685 mmHg 29%
    19:00 +32°C° 0 mm 4 m/s 685 mmHg 32%
    20:00 +29°C° 0 mm 4 m/s 685 mmHg 36%
    21:00 +28°C° 0 mm 3 m/s 686 mmHg 40%
    22:00 +27°C° 0 mm 2 m/s 686 mmHg 43%
    23:00 +26°C° 0 mm 1 m/s 686 mmHg 45%

    Après-demain, 20 Juin, Jeudi

    Heure Température Précipitation Vent Pression Humidité
    00:00 +26°C° 0 mm 1 m/s 685 mmHg 48%
    01:00 +25°C° 0 mm 1 m/s 685 mmHg 49%
    02:00 +25°C° 0 mm 1 m/s 685 mmHg 50%
    03:00 +24°C° 0 mm 1 m/s 685 mmHg 51%
    04:00 +24°C° 0 mm 1 m/s 685 mmHg 49%
    05:00 +25°C° 0 mm 1 m/s 685 mmHg 47%
    06:00 +25°C° 0 mm 1 m/s 685 mmHg 45%
    07:00 +26°C° 0 mm 1 m/s 685 mmHg 41%
    08:00 +27°C° 0 mm 1 m/s 685 mmHg 36%
    09:00 +28°C° 0 mm 1 m/s 685 mmHg 32%
    10:00 +30°C° 0 mm 1 m/s 685 mmHg 29%
    11:00 +31°C° 0 mm 2 m/s 685 mmHg 27%
    12:00 +32°C° 0 mm 2 m/s 685 mmHg 24%
    13:00 +34°C° 0 mm 3 m/s 685 mmHg 23%
    14:00 +35°C° 0 mm 3 m/s 684 mmHg 22%
    15:00 +36°C° 0 mm 4 m/s 684 mmHg 21%
    16:00 +35°C° 0 mm 4 m/s 684 mmHg 22%
    17:00 +35°C° 0 mm 5 m/s 684 mmHg 24%
    18:00 +35°C° 0 mm 6 m/s 684 mmHg 25%
    19:00 +33°C° 0 mm 5 m/s 684 mmHg 30%
    20:00 +30°C° 0 mm 4 m/s 684 mmHg 34%
    21:00 +28°C° 0 mm 3 m/s 684 mmHg 39%
    22:00 +28°C° 0 mm 2 m/s 684 mmHg 41%
    23:00 +27°C° 0 mm 2 m/s 684 mmHg 43%

    21 Juin, Vendredi

    Heure Température Précipitation Vent Pression Humidité
    00:00 +26°C° 0 mm 1 m/s 684 mmHg 46%
    01:00 +26°C° 0 mm 1 m/s 684 mmHg 46%
    02:00 +25°C° 0 mm 1 m/s 684 mmHg 46%
    03:00 +25°C° 0 mm 1 m/s 684 mmHg 47%
    04:00 +25°C° 0 mm 1 m/s 684 mmHg 47%
    05:00 +24°C° 0 mm 1 m/s 684 mmHg 47%
    06:00 +24°C° 0 mm 2 m/s 684 mmHg 48%
    07:00 +26°C° 0 mm 1 m/s 684 mmHg 44%
    08:00 +27°C° 0 mm 1 m/s 684 mmHg 41%
    09:00 +28°C° 0 mm 1 m/s 684 mmHg 38%
    10:00 +29°C° 0 mm 1 m/s 684 mmHg 34%
    11:00 +30°C° 0 mm 1 m/s 684 mmHg 31%
    12:00 +32°C° 0 mm 2 m/s 684 mmHg 28%
    13:00 +34°C° 0 mm 3 m/s 684 mmHg 26%
    14:00 +35°C° 0 mm 4 m/s 684 mmHg 25%
    15:00 +36°C° 0 mm 5 m/s 684 mmHg 23%
    16:00 +33°C° 0.4 mm 5 m/s 684 mmHg 31%
    17:00 +29°C° 0.4 mm 6 m/s 684 mmHg 39%
    18:00 +27°C° 0.4 mm 7 m/s 683 mmHg 46%
    19:00 +26°C° 0.3 mm 5 m/s 684 mmHg 48%
    20:00 +26°C° 0.3 mm 3 m/s 685 mmHg 49%
    21:00 +26°C° 0.3 mm 1 m/s 686 mmHg 50%
    22:00 +26°C° 0 mm 1 m/s 686 mmHg 50%
    23:00 +25°C° 0 mm 1 m/s 686 mmHg 51%

    22 Juin, Samedi

    Heure Température Précipitation Vent Pression Humidité
    00:00 +25°C° 0 mm 1 m/s 686 mmHg 51%
    01:00 +25°C° 0 mm 1 m/s 686 mmHg 53%
    02:00 +24°C° 0 mm 1 m/s 686 mmHg 55%
    03:00 +22°C° 0 mm 0 m/s 685 mmHg 57%
    04:00 +24°C° 0 mm 1 m/s 686 mmHg 55%
    05:00 +24°C° 0 mm 1 m/s 686 mmHg 53%
    06:00 +24°C° 0 mm 1 m/s 686 mmHg 52%
    07:00 +25°C° 0 mm 1 m/s 686 mmHg 48%
    08:00 +26°C° 0 mm 1 m/s 687 mmHg 45%
    09:00 +27°C° 0 mm 1 m/s 687 mmHg 42%
    10:00 +29°C° 0 mm 1 m/s 687 mmHg 39%
    11:00 +30°C° 0 mm 1 m/s 687 mmHg 36%
    12:00 +31°C° 0 mm 1 m/s 687 mmHg 33%
    13:00 +32°C° 0 mm 2 m/s 687 mmHg 31%
    14:00 +34°C° 0 mm 2 m/s 687 mmHg 29%
    15:00 +35°C° 0 mm 2 m/s 687 mmHg 27%
    16:00 +35°C° 0 mm 3 m/s 686 mmHg 27%
    17:00 +35°C° 0 mm 4 m/s 686 mmHg 27%
    18:00 +35°C° 0 mm 4 m/s 686 mmHg 28%
    19:00 +33°C° 0 mm 4 m/s 687 mmHg 31%
    20:00 +32°C° 0 mm 4 m/s 687 mmHg 35%
    21:00 +30°C° 0 mm 4 m/s 687 mmHg 39%
    22:00 +29°C° 0 mm 3 m/s 687 mmHg 40%
    23:00 +28°C° 0 mm 3 m/s 687 mmHg 41%

    23 Juin, Dimanche

    Heure Température Précipitation Vent Pression Humidité
    00:00 +27°C° 0 mm 2 m/s 687 mmHg 42%
    01:00 +27°C° 0 mm 2 m/s 687 mmHg 43%
    02:00 +26°C° 0 mm 2 m/s 687 mmHg 44%
    03:00 +26°C° 0 mm 2 m/s 687 mmHg 45%
    04:00 +26°C° 0 mm 1 m/s 687 mmHg 44%
    05:00 +26°C° 0 mm 1 m/s 687 mmHg 43%
    06:00 +26°C° 0 mm 1 m/s 687 mmHg 41%
    07:00 +28°C° 0 mm 1 m/s 687 mmHg 38%
    08:00 +29°C° 0 mm 1 m/s 687 mmHg 34%
    09:00 +30°C° 0 mm 1 m/s 687 mmHg 31%
    10:00 +31°C° 0 mm 1 m/s 687 mmHg 29%
    11:00 +33°C° 0 mm 1 m/s 687 mmHg 26%
    12:00 +35°C° 0 mm 2 m/s 687 mmHg 24%
    13:00 +36°C° 0 mm 2 m/s 687 mmHg 23%
    14:00 +37°C° 0 mm 2 m/s 687 mmHg 21%
    15:00 +38°C° 0 mm 3 m/s 687 mmHg 20%
    16:00 +38°C° 0 mm 4 m/s 686 mmHg 21%
    17:00 +37°C° 0 mm 4 m/s 686 mmHg 23%
    18:00 +37°C° 0 mm 5 m/s 686 mmHg 24%
    19:00 +35°C° 0 mm 5 m/s 686 mmHg 28%
    20:00 +34°C° 0 mm 4 m/s 687 mmHg 31%
    21:00 +32°C° 0 mm 4 m/s 687 mmHg 34%
    22:00 +30°C° 0 mm 4 m/s 687 mmHg 37%
    23:00 +29°C° 0 mm 3 m/s 687 mmHg 40%
    Voir plus